QPF
0.01 0.01 0.01 0.00 0.01 0.02 0.02 0.02 0.03 0.04 0.04 0.03 0.04 0.05 0.07 0.09 0.09 0.09 0.08 0.10 0.10 0.08 0.07 0.07 0.07 0.05 0.04 0.03 0.03 0.04 0.04 0.04 0.03 0.02 0.01 0.01 0.00 0.00 0.00 0.00 0.00 0.00 0.00
0.01 0.01 0.01 0.01 0.01 0.02 0.02 0.02 0.01 0.03 0.03 0.02 0.02 0.03 0.03 0.05 0.05 0.06 0.07 0.07 0.08 0.08 0.06 0.06 0.07 0.07 0.05 0.04 0.03 0.02 0.02 0.02 0.02 0.01 0.01 0.00 0.00 0.00 0.00 0.00 0.00 0.00 0.00
0.00 0.01 0.01 0.01 0.01 0.01 0.01 0.01 0.01 0.02 0.02 0.02 0.01 0.02 0.02 0.03 0.03 0.03 0.04 0.04 0.04 0.05 0.06 0.05 0.05 0.05 0.06 0.06 0.05 0.03 0.02 0.02 0.02 0.01 0.01 0.01 0.00 0.00 0.00 0.00 0.00 0.00 0.00
0.00 0.00 0.01 0.01 0.01 0.01 0.01 0.01 0.01 0.01 0.01 0.01 0.01 0.01 0.01 0.02 0.02 0.03 0.03 0.04 0.03 0.03 0.04 0.04 0.04 0.03 0.03 0.03 0.04 0.04 0.03 0.03 0.02 0.02 0.01 0.01 0.01 0.00 0.00 0.00 0.00 0.00 0.00
0.01 0.01 0.00 0.01 0.01 0.01 0.01 0.01 0.01 0.01 0.02 0.01 0.01 0.01 0.01 0.01 0.02 0.02 0.03 0.03 0.03 0.03 0.03 0.04 0.04 0.04 0.03 0.03 0.03 0.03 0.03 0.02 0.02 0.02 0.01 0.01 0.01 0.00 0.00 0.00 0.00 0.00 0.00
0.01 0.02 0.01 0.01 0.01 0.01 0.02 0.02 0.02 0.02 0.02 0.02 0.01 0.01 0.01 0.01 0.02 0.02 0.02 0.03 0.03 0.03 0.03 0.03 0.03 0.04 0.03 0.03 0.03 0.03 0.03 0.02 0.02 0.02 0.02 0.01 0.01 0.00 0.00 0.00 0.00 0.00 0.00
0.01 0.02 0.02 0.02 0.02 0.02 0.02 0.03 0.04 0.02 0.02 0.02 0.02 0.02 0.01 0.01 0.01 0.02 0.02 0.03 0.03 0.03 0.03 0.03 0.03 0.04 0.04 0.03 0.03 0.02 0.02 0.02 0.02 0.02 0.01 0.01 0.01 0.00 0.00 0.00 0.00 0.00 0.00
0.01 0.02 0.02 0.02 0.02 0.02 0.02 0.03 0.04 0.03 0.02 0.02 0.03 0.02 0.01 0.01 0.01 0.02 0.02 0.02 0.03 0.04 0.04 0.03 0.03 0.03 0.04 0.04 0.04 0.03 0.03 0.02 0.02 0.01 0.01 0.01 0.01 0.01 0.00 0.00 0.00 0.00 0.00
0.01 0.02 0.02 0.02 0.02 0.02 0.02 0.02 0.04 0.04 0.03 0.02 0.03 0.03 0.02 0.01 0.02 0.01 0.02 0.02 0.02 0.03 0.04 0.04 0.04 0.03 0.04 0.04 0.03 0.03 0.03 0.03 0.02 0.02 0.02 0.02 0.02 0.01 0.01 0.01 0.00 0.00 0.00
0.01 0.01 0.02 0.02 0.02 0.02 0.02 0.02 0.03 0.05 0.04 0.03 0.03 0.02 0.02 0.02 0.02 0.02 0.02 0.02 0.02 0.03 0.04 0.04 0.05 0.05 0.05 0.05 0.04 0.04 0.04 0.03 0.03 0.03 0.02 0.02 0.02 0.01 0.01 0.00 0.01 0.01 0.01
0.01 0.01 0.01 0.02 0.02 0.02 0.02 0.02 0.03 0.04 0.06 0.04 0.03 0.03 0.03 0.02 0.02 0.02 0.02 0.02 0.03 0.03 0.03 0.04 0.04 0.05 0.05 0.05 0.05 0.05 0.05 0.04 0.03 0.03 0.03 0.02 0.02 0.02 0.01 0.01 0.01 0.01 0.01
0.01 0.02 0.02 0.02 0.03 0.04 0.04 0.04 0.04 0.05 0.07 0.06 0.05 0.04 0.03 0.03 0.03 0.03 0.02 0.02 0.03 0.03 0.03 0.03 0.04 0.04 0.04 0.04 0.04 0.05 0.05 0.05 0.04 0.03 0.03 0.03 0.03 0.03 0.02 0.02 0.01 0.01 0.01
0.02 0.03 0.03 0.04 0.04 0.04 0.04 0.04 0.05 0.05 0.06 0.07 0.06 0.04 0.04 0.04 0.04 0.04 0.03 0.03 0.03 0.03 0.03 0.03 0.04 0.04 0.04 0.04 0.04 0.04 0.04 0.03 0.03 0.03 0.03 0.03 0.03 0.03 0.02 0.02 0.01 0.01 0.01
0.03 0.04 0.04 0.04 0.03 0.03 0.03 0.03 0.04 0.04 0.05 0.06 0.05 0.04 0.04 0.04 0.04 0.04 0.04 0.04 0.04 0.03 0.03 0.03 0.04 0.04 0.04 0.04 0.03 0.03 0.03 0.03 0.03 0.02 0.02 0.02 0.02 0.02 0.02 0.02 0.01 0.01 0.01
0.02 0.02 0.02 0.03 0.03 0.02 0.02 0.03 0.03 0.04 0.05 0.05 0.05 0.04 0.03 0.04 0.04 0.04 0.05 0.05 0.04 0.03 0.03 0.03 0.03 0.03 0.04 0.03 0.03 0.03 0.03 0.03 0.03 0.02 0.02 0.01 0.01 0.01 0.01 0.01 0.01 0.01 0.01
0.01 0.01 0.01 0.02 0.02 0.02 0.02 0.03 0.03 0.04 0.05 0.05 0.05 0.04 0.04 0.04 0.04 0.04 0.04 0.04 0.04 0.04 0.03 0.03 0.03 0.02 0.02 0.02 0.02 0.03 0.02 0.02 0.02 0.02 0.02 0.02 0.01 0.01 0.01 0.01 0.01 0.01 0.01
0.01 0.01 0.01 0.01 0.02 0.02 0.02 0.03 0.03 0.03 0.05 0.05 0.06 0.05 0.04 0.04 0.04 0.04 0.04 0.03 0.03 0.03 0.03 0.03 0.02 0.02 0.02 0.02 0.02 0.02 0.02 0.02 0.02 0.02 0.02 0.02 0.01 0.01 0.01 0.01 0.01 0.01 0.01
0.01 0.01 0.01 0.01 0.01 0.02 0.02 0.03 0.03 0.03 0.04 0.05 0.06 0.07 0.06 0.05 0.05 0.04 0.04 0.04 0.03 0.03 0.03 0.02 0.02 0.02 0.02 0.02 0.01 0.01 0.01 0.01 0.01 0.01 0.01 0.01 0.01 0.01 0.01 0.01 0.01 0.01 0.01
0.00 0.01 0.01 0.01 0.01 0.02 0.02 0.02 0.03 0.03 0.03 0.04 0.04 0.06 0.07 0.06 0.06 0.05 0.04 0.03 0.03 0.03 0.03 0.03 0.02 0.02 0.02 0.02 0.02 0.01 0.01 0.01 0.01 0.01 0.01 0.01 0.01 0.02 0.02 0.01 0.01 0.02 0.02
0.01 0.01 0.01 0.01 0.01 0.01 0.02 0.02 0.02 0.02 0.03 0.03 0.03 0.04 0.04 0.04 0.04 0.04 0.04 0.03 0.03 0.02 0.02 0.02 0.02 0.02 0.02 0.02 0.02 0.02 0.02 0.02 0.02 0.02 0.02 0.02 0.02 0.02 0.02 0.02 0.02 0.02 0.02
0.01 0.01 0.01 0.01 0.01 0.01 0.01 0.02 0.02 0.02 0.02 0.02 0.03 0.03 0.03 0.03 0.03 0.03 0.03 0.02 0.02 0.02 0.01 0.01 0.02 0.02 0.02 0.02 0.02 0.03 0.02 0.02 0.02 0.02 0.02 0.02 0.02 0.03 0.03 0.03 0.03 0.03 0.03
0.01 0.01 0.01 0.01 0.01 0.01 0.01 0.01 0.02 0.02 0.02 0.02 0.02 0.02 0.03 0.03 0.03 0.02 0.02 0.02 0.01 0.01 0.01 0.01 0.01 0.01 0.02 0.02 0.02 0.03 0.03 0.02 0.02 0.02 0.02 0.02 0.03 0.03 0.03 0.03 0.03 0.03 0.03
0.00 0.00 0.01 0.01 0.01 0.01 0.01 0.01 0.01 0.02 0.01 0.02 0.02 0.02 0.02 0.02 0.02 0.02 0.02 0.02 0.01 0.01 0.01 0.01 0.01 0.01 0.01 0.02 0.02 0.03 0.03 0.03 0.02 0.03 0.03 0.03 0.03 0.03 0.03 0.03 0.03 0.03 0.04
0.01 0.01 0.01 0.01 0.01 0.01 0.01 0.01 0.01 0.01 0.01 0.01 0.01 0.01 0.01 0.02 0.02 0.02 0.02 0.02 0.02 0.01 0.01 0.01 0.01 0.01 0.01 0.01 0.02 0.02 0.02 0.02 0.03 0.04 0.04 0.04 0.04 0.04 0.04 0.04 0.04 0.04 0.04
0.01 0.01 0.01 0.01 0.01 0.01 0.01 0.01 0.01 0.01 0.01 0.01 0.01 0.01 0.01 0.01 0.01 0.01 0.01 0.01 0.02 0.01 0.01 0.01 0.01 0.01 0.01 0.01 0.02 0.02 0.02 0.03 0.03 0.04 0.04 0.05 0.05 0.04 0.04 0.04 0.04 0.04 0.04
0.01 0.01 0.01 0.01 0.01 0.01 0.01 0.01 0.01 0.01 0.01 0.01 0.01 0.01 0.01 0.01 0.01 0.01 0.01 0.01 0.01 0.01 0.01 0.01 0.01 0.01 0.02 0.02 0.02 0.02 0.02 0.02 0.03 0.04 0.04 0.05 0.05 0.04 0.04 0.05 0.05 0.05 0.05
MSLP
1017.27 1017.55 1017.85 1018.15 1018.45 1018.76 1019.07 1019.40 1019.72 1020.05 1020.37 1020.67 1020.94 1021.17 1021.35 1021.50 1021.62 1021.72 1021.82 1021.93 1022.06 1022.21 1022.37 1022.51 1022.63 1022.69 1022.69 1022.61 1022.46 1022.24 1021.96 1021.64 1021.30 1020.95 1020.60 1020.26 1019.93 1019.61 1019.29 1018.97 1018.66 1018.36 1018.08
1017.31 1017.55 1017.81 1018.09 1018.39 1018.71 1019.06 1019.42 1019.79 1020.16 1020.52 1020.85 1021.12 1021.35 1021.51 1021.62 1021.70 1021.76 1021.81 1021.88 1021.97 1022.08 1022.20 1022.31 1022.40 1022.45 1022.43 1022.36 1022.21 1022.01 1021.76 1021.47 1021.17 1020.85 1020.53 1020.21 1019.89 1019.55 1019.21 1018.87 1018.52 1018.17 1017.83
1017.41 1017.62 1017.86 1018.13 1018.43 1018.76 1019.13 1019.52 1019.92 1020.33 1020.70 1021.04 1021.31 1021.52 1021.66 1021.74 1021.77 1021.79 1021.81 1021.84 1021.89 1021.97 1022.05 1022.14 1022.20 1022.22 1022.19 1022.09 1021.94 1021.74 1021.50 1021.23 1020.95 1020.66 1020.36 1020.05 1019.74 1019.41 1019.06 1018.70 1018.32 1017.94 1017.57
1017.57 1017.77 1018.00 1018.26 1018.56 1018.90 1019.28 1019.69 1020.11 1020.52 1020.90 1021.23 1021.49 1021.67 1021.77 1021.82 1021.82 1021.80 1021.78 1021.78 1021.81 1021.86 1021.92 1021.97 1022.00 1021.99 1021.93 1021.81 1021.63 1021.41 1021.16 1020.89 1020.61 1020.33 1020.04 1019.74 1019.44 1019.12 1018.77 1018.41 1018.03 1017.64 1017.26
1017.82 1018.01 1018.23 1018.49 1018.78 1019.13 1019.51 1019.92 1020.33 1020.74 1021.11 1021.41 1021.64 1021.79 1021.85 1021.86 1021.83 1021.78 1021.73 1021.71 1021.71 1021.73 1021.77 1021.79 1021.79 1021.73 1021.63 1021.47 1021.25 1020.99 1020.71 1020.41 1020.12 1019.83 1019.54 1019.25 1018.96 1018.65 1018.32 1017.97 1017.61 1017.24 1016.87
1018.16 1018.33 1018.55 1018.79 1019.08 1019.41 1019.78 1020.18 1020.58 1020.97 1021.31 1021.58 1021.76 1021.87 1021.89 1021.86 1021.79 1021.71 1021.63 1021.59 1021.57 1021.56 1021.57 1021.55 1021.51 1021.41 1021.25 1021.04 1020.77 1020.46 1020.13 1019.80 1019.48 1019.17 1018.87 1018.59 1018.30 1018.01 1017.71 1017.39 1017.06 1016.72 1016.38
1018.58 1018.74 1018.93 1019.16 1019.43 1019.75 1020.10 1020.47 1020.84 1021.19 1021.49 1021.71 1021.85 1021.90 1021.88 1021.80 1021.69 1021.58 1021.48 1021.40 1021.35 1021.32 1021.29 1021.23 1021.14 1020.99 1020.78 1020.51 1020.19 1019.83 1019.46 1019.09 1018.73 1018.40 1018.09 1017.80 1017.53 1017.25 1016.98 1016.69 1016.40 1016.10 1015.79
1019.06 1019.20 1019.37 1019.58 1019.82 1020.11 1020.43 1020.76 1021.09 1021.39 1021.64 1021.81 1021.89 1021.89 1021.82 1021.70 1021.55 1021.39 1021.25 1021.14 1021.06 1020.98 1020.91 1020.82 1020.68 1020.48 1020.22 1019.90 1019.53 1019.13 1018.72 1018.32 1017.94 1017.59 1017.27 1016.98 1016.70 1016.44 1016.18 1015.92 1015.65 1015.38 1015.11
1019.58 1019.69 1019.84 1020.01 1020.22 1020.47 1020.74 1021.03 1021.31 1021.56 1021.75 1021.86 1021.89 1021.83 1021.71 1021.54 1021.34 1021.15 1020.97 1020.82 1020.69 1020.58 1020.46 1020.32 1020.14 1019.90 1019.60 1019.25 1018.85 1018.42 1017.99 1017.57 1017.18 1016.81 1016.49 1016.19 1015.91 1015.65 1015.38 1015.13 1014.86 1014.61 1014.35
1020.09 1020.18 1020.29 1020.43 1020.60 1020.80 1021.03 1021.26 1021.49 1021.68 1021.80 1021.86 1021.83 1021.73 1021.55 1021.34 1021.10 1020.86 1020.64 1020.44 1020.27 1020.11 1019.95 1019.77 1019.55 1019.28 1018.95 1018.58 1018.17 1017.74 1017.31 1016.89 1016.49 1016.13 1015.79 1015.48 1015.19 1014.90 1014.62 1014.34 1014.06 1013.78 1013.51
1020.56 1020.62 1020.70 1020.80 1020.93 1021.08 1021.26 1021.44 1021.60 1021.73 1021.80 1021.80 1021.71 1021.56 1021.34 1021.09 1020.81 1020.53 1020.27 1020.03 1019.82 1019.62 1019.41 1019.20 1018.94 1018.65 1018.32 1017.94 1017.53 1017.12 1016.69 1016.29 1015.90 1015.53 1015.18 1014.85 1014.53 1014.21 1013.88 1013.55 1013.22 1012.90 1012.60
1020.94 1020.98 1021.03 1021.10 1021.18 1021.29 1021.41 1021.53 1021.63 1021.70 1021.71 1021.65 1021.53 1021.33 1021.08 1020.78 1020.48 1020.17 1019.87 1019.60 1019.35 1019.11 1018.87 1018.62 1018.35 1018.04 1017.70 1017.33 1016.93 1016.53 1016.13 1015.73 1015.35 1014.98 1014.62 1014.26 1013.89 1013.52 1013.13 1012.73 1012.34 1011.96 1011.60
1021.20 1021.23 1021.25 1021.28 1021.33 1021.39 1021.46 1021.52 1021.57 1021.58 1021.53 1021.43 1021.26 1021.02 1020.74 1020.43 1020.09 1019.76 1019.45 1019.15 1018.86 1018.59 1018.33 1018.05 1017.76 1017.44 1017.09 1016.73 1016.35 1015.96 1015.57 1015.18 1014.80 1014.41 1014.02 1013.62 1013.20 1012.76 1012.30 1011.84 1011.37 1010.92 1010.52
1021.31 1021.32 1021.33 1021.33 1021.35 1021.37 1021.39 1021.41 1021.40 1021.35 1021.26 1021.11 1020.90 1020.64 1020.33 1020.00 1019.65 1019.31 1018.98 1018.66 1018.35 1018.06 1017.77 1017.47 1017.16 1016.83 1016.48 1016.12 1015.74 1015.35 1014.96 1014.56 1014.16 1013.75 1013.32 1012.87 1012.39 1011.89 1011.36 1010.82 1010.29 1009.79 1009.35
1021.23 1021.24 1021.24 1021.23 1021.22 1021.22 1021.20 1021.18 1021.12 1021.03 1020.89 1020.70 1020.46 1020.17 1019.85 1019.50 1019.15 1018.79 1018.45 1018.12 1017.80 1017.50 1017.19 1016.87 1016.55 1016.20 1015.84 1015.46 1015.07 1014.67 1014.26 1013.84 1013.40 1012.95 1012.47 1011.96 1011.42 1010.86 1010.28 1009.69 1009.12 1008.60 1008.14
1020.97 1020.98 1020.98 1020.97 1020.95 1020.93 1020.89 1020.83 1020.74 1020.61 1020.44 1020.21 1019.94 1019.62 1019.28 1018.92 1018.56 1018.20 1017.85 1017.52 1017.20 1016.88 1016.56 1016.24 1015.90 1015.54 1015.16 1014.76 1014.35 1013.92 1013.47 1013.01 1012.52 1012.02 1011.48 1010.92 1010.33 1009.72 1009.10 1008.49 1007.91 1007.39 1006.96
1020.54 1020.55 1020.56 1020.55 1020.54 1020.52 1020.47 1020.40 1020.28 1020.12 1019.91 1019.65 1019.35 1019.01 1018.65 1018.28 1017.90 1017.54 1017.19 1016.86 1016.53 1016.22 1015.90 1015.57 1015.22 1014.85 1014.46 1014.04 1013.60 1013.13 1012.64 1012.13 1011.59 1011.03 1010.44 1009.82 1009.19 1008.55 1007.92 1007.32 1006.76 1006.28 1005.90
1019.97 1019.99 1020.01 1020.02 1020.03 1020.01 1019.97 1019.89 1019.76 1019.58 1019.34 1019.05 1018.72 1018.35 1017.97 1017.58 1017.19 1016.82 1016.47 1016.14 1015.82 1015.51 1015.20 1014.88 1014.54 1014.17 1013.77 1013.34 1012.87 1012.38 1011.85 1011.29 1010.70 1010.09 1009.45 1008.80 1008.15 1007.50 1006.88 1006.31 1005.80 1005.39 1005.09
1019.30 1019.33 1019.37 1019.41 1019.44 1019.45 1019.42 1019.34 1019.21 1019.01 1018.76 1018.44 1018.07 1017.68 1017.26 1016.85 1016.45 1016.07 1015.72 1015.39 1015.09 1014.80 1014.50 1014.20 1013.88 1013.53 1013.14 1012.71 1012.24 1011.73 1011.17 1010.59 1009.97 1009.32 1008.66 1007.99 1007.33 1006.69 1006.10 1005.58 1005.14 1004.81 1004.60
1018.58 1018.62 1018.68 1018.75 1018.81 1018.85 1018.85 1018.78 1018.65 1018.44 1018.16 1017.82 1017.43 1017.00 1016.56 1016.13 1015.71 1015.32 1014.97 1014.65 1014.37 1014.10 1013.84 1013.57 1013.28 1012.97 1012.61 1012.20 1011.74 1011.24 1010.69 1010.09 1009.46 1008.81 1008.14 1007.47 1006.83 1006.23 1005.68 1005.22 1004.86 1004.61 1004.49
1017.86 1017.91 1017.99 1018.09 1018.18 1018.25 1018.26 1018.21 1018.08 1017.87 1017.57 1017.21 1016.79 1016.33 1015.87 1015.41 1014.98 1014.59 1014.25 1013.95 1013.69 1013.45 1013.23 1013.01 1012.77 1012.51 1012.19 1011.83 1011.41 1010.94 1010.41 1009.83 1009.22 1008.59 1007.94 1007.31 1006.70 1006.15 1005.66 1005.27 1004.98 1004.81 1004.78
1017.18 1017.24 1017.33 1017.45 1017.57 1017.65 1017.68 1017.63 1017.50 1017.28 1016.97 1016.59 1016.15 1015.68 1015.20 1014.73 1014.30 1013.91 1013.58 1013.30 1013.07 1012.88 1012.71 1012.54 1012.36 1012.15 1011.89 1011.59 1011.22 1010.80 1010.32 1009.79 1009.23 1008.64 1008.05 1007.47 1006.92 1006.43 1006.01 1005.69 1005.47 1005.37 1005.39
1016.56 1016.62 1016.72 1016.85 1016.97 1017.05 1017.08 1017.03 1016.89 1016.66 1016.34 1015.94 1015.49 1015.01 1014.53 1014.07 1013.65 1013.28 1012.97 1012.73 1012.53 1012.39 1012.26 1012.15 1012.02 1011.87 1011.68 1011.44 1011.13 1010.77 1010.36 1009.90 1009.41 1008.89 1008.37 1007.86 1007.40 1006.98 1006.64 1006.38 1006.23 1006.18 1006.25
1016.02 1016.07 1016.16 1016.27 1016.38 1016.45 1016.46 1016.39 1016.23 1015.98 1015.65 1015.25 1014.80 1014.33 1013.86 1013.42 1013.03 1012.69 1012.42 1012.21 1012.07 1011.97 1011.89 1011.82 1011.75 1011.65 1011.51 1011.32 1011.08 1010.79 1010.45 1010.06 1009.65 1009.22 1008.79 1008.38 1008.00 1007.67 1007.41 1007.22 1007.12 1007.12 1007.21
1015.54 1015.57 1015.63 1015.71 1015.78 1015.81 1015.78 1015.68 1015.50 1015.23 1014.89 1014.49 1014.05 1013.61 1013.17 1012.77 1012.43 1012.14 1011.92 1011.77 1011.67 1011.61 1011.57 1011.54 1011.50 1011.44 1011.34 1011.20 1011.01 1010.78 1010.50 1010.20 1009.87 1009.53 1009.20 1008.88 1008.60 1008.36 1008.18 1008.06 1008.02 1008.04 1008.14
1015.10 1015.09 1015.11 1015.14 1015.15 1015.13 1015.05 1014.90 1014.68 1014.40 1014.05 1013.66 1013.25 1012.85 1012.47 1012.13 1011.84 1011.62 1011.46 1011.37 1011.32 1011.30 1011.30 1011.29 1011.28 1011.24 1011.16 1011.05 1010.89 1010.70 1010.48 1010.24 1009.99 1009.74 1009.50 1009.29 1009.10 1008.96 1008.85 1008.81 1008.81 1008.86 1008.96
Thickness
5543 5543 5543 5544 5544 5544 5544 5545 5545 5545 5546 5547 5548 5548 5548 5549 5550 5552 5553 5553 5553 5553 5553 5553 5553 5553 5552 5551 5551 5550 5549 5549 5548 5547 5545 5545 5545 5545 5545 5544 5545 5545 5545
5532 5533 5533 5533 5532 5533 5533 5534 5535 5535 5536 5537 5538 5538 5538 5539 5539 5541 5542 5543 5542 5542 5543 5542 5542 5543 5542 5541 5540 5539 5538 5538 5537 5536 5535 5533 5533 5533 5533 5533 5533 5533 5533
5521 5521 5521 5520 5521 5521 5522 5523 5524 5525 5525 5526 5526 5527 5527 5527 5528 5529 5530 5531 5531 5532 5532 5532 5532 5531 5531 5530 5530 5529 5528 5527 5525 5524 5523 5521 5521 5521 5520 5520 5520 5520 5521
5510 5510 5509 5509 5509 5510 5511 5511 5512 5513 5514 5515 5515 5516 5516 5516 5517 5518 5518 5519 5520 5520 5520 5521 5521 5521 5521 5520 5519 5517 5516 5514 5512 5511 5510 5509 5508 5507 5506 5506 5507 5507 5508
5498 5498 5498 5499 5498 5498 5499 5499 5500 5500 5501 5502 5502 5503 5504 5504 5505 5506 5507 5508 5507 5507 5508 5509 5509 5509 5510 5509 5508 5506 5504 5502 5500 5498 5497 5496 5496 5494 5494 5494 5494 5494 5495
5486 5486 5487 5487 5487 5487 5487 5486 5487 5488 5489 5489 5489 5490 5491 5493 5495 5495 5495 5495 5495 5496 5496 5497 5497 5496 5496 5496 5497 5496 5495 5492 5489 5487 5486 5485 5485 5484 5483 5481 5480 5480 5482
5474 5474 5475 5474 5474 5474 5474 5474 5474 5475 5476 5477 5477 5478 5479 5480 5482 5483 5483 5483 5483 5483 5484 5484 5484 5484 5483 5483 5483 5483 5483 5482 5481 5478 5476 5476 5474 5474 5471 5469 5467 5466 5468
5462 5462 5462 5462 5461 5461 5460 5460 5461 5461 5462 5464 5465 5466 5467 5468 5470 5470 5471 5470 5470 5471 5471 5471 5471 5471 5470 5469 5469 5469 5469 5468 5468 5467 5466 5465 5464 5462 5460 5458 5456 5454 5454
5448 5449 5449 5449 5448 5448 5447 5448 5448 5448 5449 5451 5452 5452 5453 5454 5455 5456 5457 5456 5456 5457 5458 5458 5458 5458 5458 5457 5455 5455 5455 5454 5454 5453 5453 5453 5451 5449 5446 5443 5440 5439 5441
5435 5436 5436 5436 5435 5434 5434 5434 5435 5435 5437 5438 5439 5439 5440 5441 5442 5442 5442 5442 5442 5443 5443 5444 5445 5445 5445 5444 5442 5441 5441 5441 5440 5439 5438 5437 5436 5435 5433 5431 5429 5426 5426
5424 5424 5424 5423 5423 5422 5421 5421 5422 5422 5423 5424 5425 5426 5426 5427 5428 5428 5428 5427 5427 5428 5428 5430 5430 5431 5432 5431 5430 5429 5429 5428 5426 5424 5423 5422 5421 5420 5419 5418 5417 5415 5415
5411 5411 5411 5411 5410 5410 5408 5408 5408 5409 5409 5410 5411 5412 5413 5413 5413 5414 5414 5414 5414 5414 5415 5415 5416 5417 5418 5418 5417 5416 5416 5414 5411 5409 5408 5408 5407 5407 5406 5406 5405 5405 5405
5397 5397 5398 5398 5397 5396 5396 5395 5395 5395 5395 5396 5397 5397 5399 5399 5399 5400 5401 5401 5401 5400 5400 5401 5402 5402 5403 5403 5403 5402 5401 5399 5398 5396 5396 5396 5396 5395 5394 5393 5393 5392 5393
5384 5384 5385 5385 5384 5383 5383 5383 5382 5382 5382 5383 5384 5385 5386 5386 5386 5386 5386 5386 5387 5386 5386 5387 5388 5388 5389 5389 5389 5388 5387 5386 5386 5385 5385 5384 5383 5382 5381 5381 5380 5380 5381
5371 5371 5371 5372 5371 5370 5370 5370 5371 5371 5371 5372 5373 5374 5374 5375 5376 5375 5374 5374 5373 5373 5373 5373 5373 5374 5374 5374 5374 5374 5374 5373 5373 5372 5372 5372 5371 5370 5369 5369 5368 5368 5369
5358 5358 5358 5358 5358 5357 5357 5358 5360 5361 5362 5363 5363 5363 5364 5364 5365 5364 5363 5363 5363 5362 5361 5361 5362 5362 5362 5362 5362 5362 5361 5361 5361 5360 5360 5360 5359 5359 5358 5357 5357 5357 5358
5347 5347 5347 5347 5346 5345 5345 5346 5348 5350 5351 5352 5352 5353 5353 5353 5353 5353 5352 5352 5352 5351 5350 5350 5351 5350 5350 5350 5350 5350 5350 5350 5349 5349 5349 5349 5348 5348 5348 5348 5347 5347 5348
5336 5336 5336 5336 5335 5335 5334 5334 5335 5337 5339 5340 5341 5341 5341 5341 5341 5340 5340 5340 5339 5339 5338 5338 5339 5338 5338 5339 5339 5339 5340 5339 5338 5339 5339 5338 5338 5338 5339 5339 5338 5338 5338
5325 5325 5325 5326 5325 5325 5324 5324 5324 5325 5326 5328 5329 5329 5329 5328 5329 5328 5327 5326 5326 5326 5327 5327 5328 5328 5328 5329 5329 5329 5330 5330 5329 5329 5329 5329 5329 5329 5330 5330 5330 5331 5330
5316 5317 5316 5316 5315 5315 5315 5314 5314 5314 5315 5315 5317 5317 5316 5315 5315 5316 5315 5315 5315 5316 5317 5317 5318 5318 5319 5319 5320 5320 5320 5321 5321 5321 5321 5321 5321 5321 5322 5322 5323 5324 5324
5306 5307 5307 5307 5306 5306 5305 5305 5304 5304 5305 5305 5307 5307 5307 5305 5306 5307 5307 5307 5307 5307 5308 5308 5309 5310 5311 5311 5311 5312 5312 5313 5313 5314 5314 5314 5314 5314 5315 5316 5317 5317 5317
5296 5297 5297 5297 5297 5297 5296 5296 5295 5295 5296 5296 5298 5298 5298 5297 5297 5298 5299 5299 5299 5300 5300 5300 5301 5302 5303 5303 5304 5304 5305 5306 5307 5307 5307 5308 5308 5309 5310 5310 5311 5311 5311
5287 5288 5288 5288 5288 5288 5288 5287 5287 5287 5287 5287 5288 5288 5289 5289 5289 5291 5292 5292 5292 5292 5293 5293 5294 5295 5296 5296 5297 5298 5299 5301 5301 5301 5302 5303 5303 5304 5304 5305 5305 5305 5305
5278 5278 5278 5278 5278 5278 5278 5278 5278 5278 5278 5279 5280 5280 5281 5282 5283 5284 5285 5285 5285 5286 5286 5287 5287 5288 5289 5290 5291 5292 5294 5295 5295 5296 5297 5298 5299 5300 5300 5300 5301 5301 5300
5269 5269 5269 5269 5269 5269 5269 5269 5270 5270 5270 5271 5272 5273 5274 5275 5276 5277 5278 5278 5279 5280 5281 5281 5281 5282 5283 5284 5286 5287 5289 5290 5291 5292 5292 5294 5295 5296 5296 5296 5296 5296 5295
5261 5261 5261 5261 5261 5261 5261 5261 5262 5263 5263 5264 5265 5266 5267 5268 5269 5270 5271 5272 5272 5274 5275 5276 5276 5277 5278 5280 5281 5283 5284 5286 5287 5288 5288 5290 5291 5292 5292 5292 5292 5291 5291